McComb, MS

12:32 AM CDT on May 29, 2017 (GMT -0500)
McComb-Pike County-Lewis

Weather History for KMCB - December, 2011

Change the Weather History Date:

Saturday, December 31, 2011

  Actual Average Record
Temperature  
Mean Temperature 56 °F -  
Max Temperature 72 °F 59 °F 79 °F (1951)
Min Temperature 41 °F 39 °F 13 °F (1983)
Degree Days  
Heating Degree Days 8    
Growing Degree Days 6 (Base 50)    
Moisture  
Dew Point 53 °F    
Average Humidity 80    
Maximum Humidity 97    
Minimum Humidity 47    
Precipitation  
Precipitation 0.01 in - - ()
Sea Level Pressure  
Sea Level Pressure 30.09 in    
Wind  
Wind Speed 4 mph (South)    
Max Wind Speed 13 mph    
Max Gust Speed 18 mph    
Visibility 8 miles    
Events Rain    
Averages and records for this station are not official NWS values.
T = Trace of Precipitation, MM = Missing Value Source: NWS Daily Summary

Daily Weather History Graph

Daily Weather History Graph

Search for Another Location

Airport or City:

Trip Planner

Search our weather history database for the weather conditions in past years. The results will help you decide how hot, cold, wet, or windy it might be!

Date:

Astronomy

Dec. 31, 2011 Rise Set
Actual Time 7:00 AM CST 5:09 PM CST
Civil Twilight 6:33 AM CST 5:36 PM CST
Nautical Twilight 6:03 AM CST 6:06 PM CST
Astronomical Twilight 5:33 AM CST 6:35 PM CST
Moon 11:14 AM CST (12/31) No Moon Set
Length of Visible Light 11h 02m
Length of Day
10h 09m
Waxing Crescent, 45% of the Moon is Illuminated
Dec 31
Waxing Crescent
Jan 1
First Quarter
Jan 9
Full
Jan 16
Last Quarter
Jan 23
New

Hourly Weather History & Observations

Time (CST) Temp. Dew Point Humidity Pressure Visibility Wind Dir Wind Speed Gust Speed Precip Events Conditions
12:53 AM 48.9 °F 46.0 °F 90% 30.04 in 10.0 mi Calm Calm - N/A   Clear
1:17 AM 48.2 °F 46.4 °F 93% 30.05 in 5.0 mi Calm Calm - N/A   Partly Cloudy
1:53 AM 46.9 °F 44.1 °F 90% 30.06 in 7.0 mi Calm Calm - N/A   Partly Cloudy
2:53 AM 44.1 °F 43.0 °F 96% 30.07 in 2.5 mi Calm Calm - N/A   Mostly Cloudy
2:59 AM 44.6 °F 42.8 °F 93% 30.07 in 4.0 mi Calm Calm - N/A   Scattered Clouds
3:53 AM 45.0 °F 43.0 °F 93% 30.08 in 10.0 mi Calm Calm - N/A   Clear
4:29 AM 41.0 °F 39.2 °F 93% 30.09 in 5.0 mi Calm Calm - N/A   Partly Cloudy
4:53 AM 43.0 °F 41.0 °F 93% 30.09 in 10.0 mi Calm Calm - N/A   Clear
6:53 AM 42.1 °F 39.9 °F 92% 30.14 in 9.0 mi Calm Calm - N/A   Clear
7:53 AM 43.0 °F 42.1 °F 97% 30.16 in 7.0 mi Calm Calm - N/A   Clear
8:53 AM 55.0 °F 48.9 °F 80% 30.18 in 10.0 mi Calm Calm - N/A   Clear
9:53 AM 60.1 °F 44.1 °F 55% 30.18 in 10.0 mi Variable 4.6 mph - N/A   Clear
10:53 AM 64.0 °F 45.0 °F 50% 30.16 in 10.0 mi Variable 4.6 mph - N/A   Scattered Clouds
11:53 AM 69.1 °F 48.0 °F 47% 30.12 in 10.0 mi Variable 5.8 mph - N/A   Clear
12:53 PM 70.0 °F 52.0 °F 53% 30.09 in 10.0 mi South 8.1 mph - N/A   Mostly Cloudy
1:53 PM 72.0 °F 55.9 °F 57% 30.06 in 10.0 mi South 11.5 mph - N/A   Clear
2:35 PM 71.6 °F 57.2 °F 60% 30.07 in 10.0 mi South 9.2 mph - N/A   Mostly Cloudy
2:42 PM 71.6 °F 57.2 °F 60% 30.07 in 10.0 mi SSW 9.2 mph - N/A   Mostly Cloudy
2:53 PM 71.1 °F 57.0 °F 61% 30.07 in 10.0 mi South 10.4 mph - N/A   Mostly Cloudy
3:17 PM 71.6 °F 59.0 °F 64% 30.07 in 10.0 mi South 10.4 mph - N/A   Mostly Cloudy
3:32 PM 71.6 °F 59.0 °F 64% 30.07 in 10.0 mi South 9.2 mph - N/A   Scattered Clouds
3:53 PM 69.1 °F 60.1 °F 73% 30.07 in 10.0 mi South 10.4 mph - N/A   Mostly Cloudy
4:02 PM 69.8 °F 60.8 °F 73% 30.08 in 10.0 mi SSW 6.9 mph - N/A   Mostly Cloudy
4:53 PM 66.9 °F 61.0 °F 81% 30.07 in 10.0 mi South 8.1 mph - N/A   Overcast
5:48 PM 66.2 °F 60.8 °F 83% 30.08 in 10.0 mi SSE 8.1 mph - N/A   Overcast
5:53 PM 66.0 °F 61.0 °F 84% 30.07 in 10.0 mi SSE 11.5 mph - N/A   Overcast
6:25 PM 66.2 °F 62.6 °F 88% 30.09 in 10.0 mi SSE 10.4 mph - N/A   Overcast
6:39 PM 66.2 °F 62.6 °F 88% 30.09 in 8.0 mi South 12.7 mph - N/A   Overcast
6:53 PM 64.9 °F 63.0 °F 93% 30.09 in 5.0 mi South 9.2 mph - 0.01 in Rain Light Rain
7:12 PM 64.4 °F 62.6 °F 94% 30.11 in 7.0 mi South 5.8 mph - 0.00 in   Overcast
7:53 PM 64.0 °F 63.0 °F 96% 30.11 in 6.0 mi South 9.2 mph - 0.00 in   Overcast
8:53 PM 64.9 °F 63.0 °F 93% 30.12 in 6.0 mi South 9.2 mph - N/A   Overcast
9:53 PM 64.9 °F 63.0 °F 93% 30.13 in 6.0 mi South 6.9 mph - N/A   Overcast
11:53 PM 64.0 °F 63.0 °F 96% 30.12 in 7.0 mi South 10.4 mph 18.4 mph N/A   Overcast